Regional Weather Roundup
Issued by NWS

Home | Current Version | Previous Version | Text Only | Print | Product List | Glossary On
Versions: 1 2 3 4 5 6 7 8 9 10 11 12 13 14 15 16 17 18 19 20 21 22 23 24 25 26 27 28 29 30 31 32 33 34 35 36 37 38 39 40 41 42 43 44 45 46 47 48 49 50
000
ASUS44 KFWD 010915
RWRTX
NORTH TEXAS HOURLY WEATHER ROUNDUP
NATIONAL WEATHER SERVICE FORT WORTH TX
400 AM CDT SAT AUG 01 2015

NOTE: "FAIR" INDICATES FEW OR NO CLOUDS BELOW 12,000 FEET WITH NO
SIGNIFICANT WEATHER AND/OR OBSTRUCTIONS TO VISIBILITY.

TXZ118-119-011000-
DALLAS/FORT WORTH METROPLEX

CITY           SKY/WX    TMP DP  RH WIND       PRES   REMARKS
DFW AIRPORT    MOCLDY    83  57  41 CALM      30.02S
DALLAS LOVE    MOCLDY    82  60  47 CALM      30.03R
FTW MEACHAM    MOCLDY    81  67  62 CALM      30.02S
DAL-EXECUTIVE  PTCLDY    79  60  52 E3        30.03R
FTW-ALLIANCE   MOCLDY    73  70  90 CALM      30.03S
FTW-NAS-JRB    MOCLDY    80  73  79 NW5       30.03S
FTW-SPINKS     CLOUDY    77  70  79 CALM      30.04F
ARLINGTON      MOCLDY    82  60  47 E3        30.03R
GRAND PRAIRIE  MOCLDY    81  62  51 CALM      30.04S
ADDISON        PTCLDY    81  63  52 CALM      30.05S
MESQUITE       PTCLDY    74  63  67 N3        30.03R
LANCASTER      PTCLDY    75  56  52 CALM      30.03S
$$

TXZ091>094-102>105-117-120-121-131>134-011000-
NORTH CENTRAL TEXAS

CITY           SKY/WX    TMP DP  RH WIND       PRES   REMARKS
SHRMAN/DENISON PTCLDY    74  65  71 E5        30.05S
GAINESVILLE    MOCLDY    74  62  66 CALM      30.07S
BOWIE          MOCLDY    74  66  75 CALM      30.05S
DECATUR        PTCLDY    75  65  70 E5        30.05F
DENTON         PTCLDY    75  65  70 CALM      30.03S
MCKINNEY       CLEAR     73  62  68 CALM      30.03S
GREENVILLE     CLEAR     72  63  73 CALM      30.04R
ROCKWALL       CLEAR     73  63  68 E3        30.03R
TERRELL        CLEAR     72  64  76 NE6       30.03R
WAXAHACHIE     MOCLDY    77  63  61 CALM      30.04S
CLEBURNE         N/A     81  64  57 MISG      30.05S
GRANBURY       CLOUDY    77  74  91 CALM      30.05S
$$

TXZ083>090-098>101-113>116-127>130-139>142-154-155-011000-
WESTERN NORTH TEXAS

CITY           SKY/WX    TMP DP  RH WIND       PRES   REMARKS
WICHITA FALLS  CLOUDY    73  71  93 N7        30.06F
WF-KICKAPOO    CLOUDY    76  71  84 N6        30.08S
VERNON         CLOUDY    75  69  82 NW6       30.11R
ABILENE        CLEAR     75  65  70 SE6       30.07F
ABILENE-DYESS  CLEAR     76  66  71 SE6       30.05F
BRECKENRIDGE   PTCLDY    75  70  84 NE5       30.05F
GRAHAM         PTCLDY    72  72  99 CALM      30.05S FOG
MINERAL WELLS  MOCLDY    75  73  93 CALM      30.03F
STEPHENVILLE   MOCLDY    76  70  83 CALM      30.08S
COMANCHE       MOCLDY    73  69  87 CALM      30.06F
BROWNWOOD      MOCLDY    73  68  83 CALM      30.06F
COLEMAN        PTCLDY    75  67  77 CALM      30.07F
BRADY          CLEAR     75  70  83 CALM      30.06F
$$

TXZ143>147-156>162-174-175-011000-
CENTRAL TEXAS

CITY           SKY/WX    TMP DP  RH WIND       PRES   REMARKS
WACO           PTCLDY    74  65  73 CALM      30.01S
WACO-MCGREGOR  CLEAR     73  55  53 CALM      30.03F
HILLSBORO      MOCLDY    77  60  55 CALM      30.02S
CORSICANA      PTCLDY    75  63  66 NE3       30.03R
MEXIA          CLEAR     73  60  64 E7        30.01R
HEARNE         CLEAR     70  62  75 NW5       30.00R
CAMERON        CLEAR     74  64  71 NW3       30.00R
TEMPLE         CLEAR     73  57  56 NE6       30.01S
KILLEEN        CLEAR     77  63  60 NE3       30.02S
KILLEEN-SKYLRK CLEAR     75  59  57 NE3       29.99F
FORT HOOD      CLEAR     77  62  58 VRB5      30.01S
GATESVILLE     PTCLDY    75  68  78 CALM      30.05S
HAMILTON       MOCLDY    78  68  71 CALM      30.05F
LAMPASAS       CLEAR     77  69  77 NE6       30.02F
$$

TXZ095>097-106>112-122>126-135>138-148>153-164>167-011000-
EAST TEXAS

CITY           SKY/WX    TMP DP  RH WIND       PRES   REMARKS
PARIS          CLEAR     72  59  64 N6        30.04S
SULPHUR SPRNGS CLEAR     73  64  71 CALM      30.06R
MOUNT PLEASANT CLEAR     70  63  77 CALM      30.04R
GILMER         CLEAR     74  63  68 CALM      30.02R
MINEOLA        CLEAR     70  64  83 CALM      30.04R
TYLER          PTCLDY    77  62  59 CALM      30.02R
LONGVIEW       CLEAR     75  64  68 CALM      30.00R
MARSHALL       PTCLDY    73  67  79 CALM      30.02R
ATHENS         PTCLDY    70  64  83 CALM      30.01R
PALESTINE      PTCLDY    74  62  66 CALM      30.02R
JACKSONVILLE   PTCLDY    76  61  59 E3        30.04R
HENDERSON      CLEAR     72  64  75 CALM      30.02R
CENTER         FAIR      71  66  82 CALM      29.99S
NACOGDOCHES    CLEAR     72  63  73 CALM      29.99S
LUFKIN         CLEAR     71  65  81 E3        29.98S
$$

SUPPLEMENTAL OBSERVATIONS (CENTRAL)

CITY           SKY/WX    TMP DP  RH WIND       PRES   REMARKS
LAKE TEXOMA      N/A     73  64  73 E2          N/A
CADDO GRASSLND   N/A     66  61  82 CALM        N/A
PAT MAYSE LAKE   N/A     72  63  73 N1          N/A
GREENVILLE       N/A    N/A N/A N/A NE2         N/A
CEDAR HILL       N/A    N/A N/A N/A CALM        N/A
ATHENS           N/A     72  63  73 N1          N/A
LAKE LIMESTONE   N/A     73  59  60 NE3         N/A
MCGREGOR         N/A    N/A N/A N/A N1          N/A
TEMPLE           N/A     75  57  53 NE6         N/A
$$

SUPPLEMENTAL OBSERVATIONS (WEST)

CITY           SKY/WX    TMP DP  RH WIND       PRES   REMARKS
MILLERS CREEK    N/A     73  68  83 NE5         N/A
POSSUM KINGDOM   N/A     73  66  78 NE2         N/A
LBJ GRASSLAND    N/A     75  63  64 E1          N/A
GRANBURY         N/A     75  72  88 NW2         N/A
COMANCHE         N/A     73  66  78 CALM        N/A
HAMBY            N/A     72  63  73 SE2         N/A
IVIE RESERVOIR   N/A     75  66  73 CALM        N/A
COLORADO BEND    N/A     73  64  73 CALM        N/A
$$

SUPPLEMENTAL OBSERVATIONS (EAST)

CITY           SKY/WX    TMP DP  RH WIND       PRES   REMARKS
CLARKSVILLE      N/A     72  64  78 N2          N/A
TEXARKANA        N/A     64  61  88 CALM        N/A
LINDEN           N/A     70  63  78 CALM        N/A
CADDO LAKE       N/A     64  63  94 CALM        N/A
GILMER           N/A     72  64  78 CALM        N/A
HENDERSON        N/A    N/A N/A N/A E1          N/A
LUFKIN           N/A     70  64  83 MISG        N/A
N SABINE NF      N/A     70  64  83 MISG        N/A
S SABINE NF      N/A     77  64  65 CALM        N/A
$$

SUPPLEMENTAL OBSERVATIONS ARE A COLLECTION OF AUTOMATED INSTRUMENTS
THAT ARE MAINTAINED BY A VARIETY OF FEDERAL AND STATE AGENCIES.
CERTAIN ELEMENTS...SUCH AS HUMIDITY VALUES AND SUSTAINED WIND
SPEEDS...MAY BE APPROXIMATED.



USA.gov is the U.S. government's official web portal to all federal, state and local government web resources and services.